TimeEDT,TemperatureF,Dew PointF,Humidity,Sea Level PressureIn,VisibilityMPH,Wind Direction,Wind SpeedMPH,Gust SpeedMPH,PrecipitationIn,Events,Conditions,WindDirDegrees,DateUTC
12:53 AM,75.9,73.9,94,30.08,10.0,SSW,5.8,-,N/A,,Clear,210,2013-07-23 04:53:00
1:53 AM,75.0,73.9,96,30.07,10.0,South,5.8,-,N/A,,Clear,190,2013-07-23 05:53:00
2:53 AM,75.0,73.0,94,30.06,10.0,SSW,4.6,-,N/A,,Clear,210,2013-07-23 06:53:00
3:53 AM,73.9,73.0,97,30.05,10.0,SSW,5.8,-,N/A,,Clear,200,2013-07-23 07:53:00
4:28 AM,73.4,73.4,100,30.05,10.0,SSW,4.6,-,N/A,,Mostly Cloudy,200,2013-07-23 08:28:00
4:35 AM,73.4,73.4,100,30.05,10.0,SSW,4.6,-,N/A,,Scattered Clouds,200,2013-07-23 08:35:00
4:53 AM,73.0,73.0,100,30.05,10.0,SSW,5.8,-,N/A,,Clear,200,2013-07-23 08:53:00
5:53 AM,72.0,72.0,100,30.06,10.0,Calm,Calm,-,N/A,,Clear,0,2013-07-23 09:53:00
6:53 AM,72.0,72.0,100,30.06,10.0,SW,4.6,-,N/A,,Clear,220,2013-07-23 10:53:00
7:53 AM,73.0,73.0,100,30.07,10.0,SW,4.6,-,N/A,,Clear,220,2013-07-23 11:53:00
8:53 AM,75.0,75.0,100,30.08,10.0,SW,8.1,-,N/A,,Partly Cloudy,230,2013-07-23 12:53:00
9:53 AM,81.0,75.0,82,30.08,10.0,WSW,9.2,-,N/A,,Mostly Cloudy,240,2013-07-23 13:53:00
10:53 AM,82.9,73.9,74,30.06,10.0,WSW,11.5,-,N/A,,Mostly Cloudy,250,2013-07-23 14:53:00
11:47 AM,71.6,71.6,100,30.09,1.8,WSW,16.1,-,0.09,Rain,Heavy Rain,250,2013-07-23 15:47:00
11:48 AM,72.0,72.0,100,30.09,1.8,WSW,15.0,-,0.09,Rain,Heavy Rain,240,2013-07-23 15:48:00
11:53 AM,71.6,71.6,100,30.09,3.0,WSW,12.7,21.9,0.00,Rain,Light Rain,250,2013-07-23 15:53:00
12:53 PM,73.9,73.9,100,30.06,10.0,West,8.1,-,0.04,,Scattered Clouds,260,2013-07-23 16:53:00
1:53 PM,75.9,73.9,94,30.06,10.0,WSW,9.2,-,N/A,,Scattered Clouds,250,2013-07-23 17:53:00
2:53 PM,79.0,72.0,79,30.03,10.0,West,13.8,-,N/A,,Clear,260,2013-07-23 18:53:00
3:53 PM,75.9,72.0,87,30.02,10.0,WSW,10.4,-,0.00,,Scattered Clouds,250,2013-07-23 19:53:00
4:53 PM,77.0,73.0,88,30.01,10.0,West,13.8,-,N/A,,Clear,270,2013-07-23 20:53:00
5:53 PM,77.0,72.0,84,30.01,10.0,West,11.5,-,N/A,,Clear,260,2013-07-23 21:53:00
6:53 PM,75.9,72.0,87,29.96,10.0,SW,9.2,-,N/A,,Clear,230,2013-07-23 22:53:00
7:53 PM,75.0,72.0,90,29.97,10.0,West,6.9,-,N/A,,Clear,270,2013-07-23 23:53:00
8:53 PM,73.9,72.0,93,29.97,10.0,West,6.9,-,N/A,,Partly Cloudy,270,2013-07-24 00:53:00
9:53 PM,73.0,72.0,96,30.00,10.0,WSW,4.6,-,N/A,,Clear,250,2013-07-24 01:53:00
10:53 PM,73.0,73.0,100,30.00,10.0,WSW,5.8,-,N/A,,Clear,240,2013-07-24 02:53:00
11:53 PM,73.0,73.0,100,30.00,10.0,SSW,6.9,-,N/A,,Clear,210,2013-07-24 03:53:00